Regional Weather Roundup
Issued by NWS

Home | Current Version | Previous Version | Text Only | Print | Product List | Glossary On
Versions: 1 2 3 4 5 6 7 8 9 10 11 12 13 14 15 16 17 18 19 20 21 22 23 24 25 26 27 28 29 30 31 32 33 34 35 36 37 38 39 40 41 42 43 44 45 46 47 48 49 50
000
ASUS43 KMKX 231521
RWRWI

WISCONSIN REGIONAL WEATHER ROUNDUP
NATIONAL WEATHER SERVICE MILWAUKEE/SULLIVAN WI
900 AM CST FRI FEB 23 2018

NOTE: "FAIR" INDICATES FEW OR NO CLOUDS BELOW 12,000 FEET WITH NO
SIGNIFICANT WEATHER AND/OR OBSTRUCTIONS TO VISIBILITY.

WIZ001-002-006>008-014>016-023>028-231600-
NORTHWEST WISCONSIN

CITY           SKY/WX    TMP DP  RH WIND       PRES   REMARKS
SUPERIOR ARPT  LGT SNOW  26  24  92 SW5       30.04S WCI  21
ASHLAND        CLOUDY    25  24  96 SW3       30.01F FOG
HAYWARD        CLOUDY    27  23  85 SW5       30.00S WCI  22
SIREN          CLOUDY    27  25  94 W7        30.05R WCI  19
CUMBERLAND     CLOUDY    27  27 100 W10       30.02R WCI  17
RICE LAKE      CLOUDY    28  28  99 SW8       30.05R WCI  20
CHETEK         CLOUDY    28  28  98 W3        30.04R
LADYSMITH      CLOUDY    29  28  96 SW7       30.03R FOG     WCI  22
EAU CLAIRE     CLOUDY    29  28  96 W10       30.06R FOG     WCI  20
MENOMONIE      CLOUDY    30  28  92 W8        30.08R WCI  23
NEW RICHMOND   CLOUDY    27  25  93 W10G16    30.08R FOG     WCI  17
OSCEOLA        CLOUDY    28  28 100 W10       30.11R WCI  18
$$

WIZ003>005-009-010-017-018-231600-
NORTH CENTRAL WISCONSIN

CITY           SKY/WX    TMP DP  RH WIND       PRES   REMARKS
MANITOWISH WTR MIX PCPN  27  27 100 SW3       29.95F
ARBOR VITAE    CLOUDY    32  30  94 SW6       29.96S FOG     WCI  26
WOODRUFF       CLOUDY    32  30  94 SW6       29.96S FOG     WCI  26
RHINELANDER    CLOUDY    30  29  96 SW9       29.96F FOG     WCI  22
EAGLE RIVER    CLOUDY    29  29  99 SW8       29.94F FOG     WCI  21
LAND O LAKES   CLOUDY    30  28  92 SW3       29.96F
PHILLIPS       CLOUDY    29  29 100 SW6       29.98R FOG     WCI  23
TOMAHAWK       CLOUDY    30  29  95 CALM      29.99S FOG
MEDFORD        MIX PCPN  30  29  96 SW8       29.99S WCI  22
MERRILL        MIX PCPN  32  32  99 SW7       30.00S WCI  26
$$

WIZ029-030-035-036-043>047-231600-
CENTRAL WISCONSIN

CITY           SKY/WX    TMP DP  RH WIND       PRES   REMARKS
WAUSAU         CLOUDY    32  31  96 SW8       29.99R WCI  25
MOSINEE        CLOUDY    32  32 100 SW10      30.02R FOG     WCI  24
MARSHFIELD     CLOUDY    32  31  96 W13       30.01R FOG     WCI  22
STEVENS POINT  LGT SNOW  31  31 100 SW9       30.03R WCI  23
WAUPACA        CLOUDY    36  34  94 SW7       30.04R FOG     WCI  30
WAUTOMA        CLOUDY    33  32  96 W9        30.06R WCI  25
WISC RAPIDS    CLOUDY    33  30  88 W9        30.05R WCI  25
CAMP DOUGLAS   CLOUDY    34  34 100 W13       30.06R WCI  25
$$

WIZ011>013-019>022-031-037>040-048>050-231600-
NORTHEAST WISCONSIN

CITY           SKY/WX    TMP DP  RH WIND       PRES   REMARKS
ANTIGO         MIX PCPN  31  31  99 SW7       29.98S WCI  24
SHAWANO        CLOUDY    35  33  94 SW7       30.01S FOG     WCI  29
OCONTO         CLOUDY    32  32  99 CALM      30.01F
STURGEON BAY   CLOUDY    36  34  93 S9        30.01F FOG     WCI  29
GREEN BAY      CLOUDY    35  33  92 SW5       30.02F FOG     WCI  31
MANITOWOC      FOG       37  36  93 S6        30.04S VSB 1   WCI  33
APPLETON       CLOUDY    36  36 100 SW9       30.01S FOG     WCI  29
CLINTONVILLE   CLOUDY    33  32  96 SW7       30.02S FOG     WCI  27
OSHKOSH        CLOUDY    37  35  92 W9        30.04R FOG     WCI  30
$$

WIZ032>034-041-042-053>061-231600-
SOUTHWEST WISCONSIN

CITY           SKY/WX    TMP DP  RH WIND       PRES   REMARKS
LA CROSSE      CLOUDY    34  30  85 W12G23    30.11R WCI  25
SPARTA         CLOUDY    32  32  99 W8        30.09S WCI  25
VIROQUA        CLOUDY    32  32 100 W9        30.07S WCI  24
BOSCOBEL       CLOUDY    36  31  82 SW7       30.13R WCI  30
PRAIRIE DU CHI CLOUDY    34  31  86 W7        30.14R WCI  28
PLATTEVILLE    CLOUDY    33  33 100 W12       30.14R WCI  24
$$

WIZ056-057-062-063-064-067-068-231600-
SOUTH CENTRAL WISCONSIN

CITY           SKY/WX    TMP DP  RH WIND       PRES   REMARKS
REEDSBURG      CLOUDY    34  34  99 W15       30.09R WCI  24
BARABOO/DELLS  CLOUDY    34  33  96 W13G18    30.07R WCI  25
LONE ROCK      CLOUDY    35  33  92 W10       30.11R WCI  27
MINERAL POINT  CLOUDY    34 N/A N/A W15       30.10R WCI  24
MADISON        CLOUDY    36  34  92 VRB6G17   30.08R WCI  31
MIDDLETON      CLOUDY    36  36  99 W8        30.08R WCI  30
WATERTOWN      CLOUDY    37  37 100 SW9       30.06R FOG     WCI  30
MONROE         CLOUDY    34  34 100 W17G24    30.10R WCI  23
JANESVILLE     CLOUDY    39  39 100 W12G21    30.08R FOG     WCI  32
$$

WIZ051-052-058>065-066-070>072-231600-
SOUTHEAST WISCONSIN

CITY           SKY/WX    TMP DP  RH WIND       PRES   REMARKS
MILWAUKEE      DRIZZLE   39  38  96 SW5       30.07R FOG
WAUKESHA       CLOUDY    37  37 100 SW13      30.06S FOG     WCI  29
MILWAUKEE/TIMM CLOUDY    37  36  93 SW8       30.06S FOG     WCI  31
RACINE         CLOUDY    41  40  96 W7        30.08S FOG
BURLINGTON     CLOUDY    40  38  94 W8        30.08R FOG     WCI  34
KENOSHA        CLOUDY    42  40  92 W14       30.07R FOG
FOND DU LAC    CLOUDY    38  34  85 SW9       30.05R FOG     WCI  31
SHEBOYGAN      CLOUDY    36  36 100 S7        30.04S FOG     WCI  30
WEST BEND      CLOUDY    37  37 100 SW10      30.04F FOG     WCI  30
JUNEAU         CLOUDY    36  35  99 SW10      30.06R FOG     WCI  28
$$

LSZ147-162-231600-
LAKE SUPERIOR

STATION/POSITION TIME  TEMP    WIND        PRES    WAVE
                       AIR SEA DIR/SP/G            HT/PER
                 (UTC) (F)     (DEG/KT/KT) (MB)    (FT/S)
DEVILS ISLAND    1500   26     200/  7/  8 1016.9F
SAXON HARBOR     1430   27      CALM  /  2 1015.9F
$$

LMZ867-665-643>646-231600-
LAKE MICHIGAN

STATION/POSITION TIME  TEMP    WIND        PRES    WAVE
                       AIR SEA DIR/SP/G            HT/PER
                 (UTC) (F)     (DEG/KT/KT) (MB)    (FT/S)
NORTHPORT PIER   1440   34                 1016.3F
KEWAUNEE LAKESHO 1500   35     190/  8/ 11 1015.9
SHEBOYGAN LAKESH 1500   35     200/  7/  8 1017.9R
PORT WASHINGTON  1440   35     190/  6/  7 1018.6S
KENOSHA   LAKESH 1500   42     250/  5/ 10 1018.6
$$

TC  - TEMPERATURE IN CELSIUS
VSB - VISIBILITY IN STATUTE MILES
WCI - WIND CHILL INDEX
HX  - HEAT INDEX




USA.gov is the U.S. government's official web portal to all federal, state and local government web resources and services.